Temperature
20 20 19 19 18 18 19 21 23 25 25 26 26 25 23 22 22 22 22 22 21 21 20 20 20 20 20 20 20 20 20 20 20 20 20 20 20 20 19 19 19 19 19 19 19 19 19 19 19
20 20 19 19 18 20 22 24 25 26 26 26 26 24 22 21 21 22 22 21 21 21 20 20 20 20 20 20 20 20 20 20 20 20 20 20 20 19 19 19 19 19 19 19 19 19 19 19 19
20 19 19 17 18 20 23 25 26 27 27 26 25 24 23 22 22 23 23 22 21 21 20 20 20 20 20 20 20 20 20 19 19 19 19 19 19 19 19 19 19 19 19 19 19 19 19 19 19
20 19 19 17 19 20 22 24 25 26 26 26 25 23 22 21 22 23 22 22 21 21 20 20 20 20 20 20 20 20 19 19 19 19 19 19 19 19 19 19 19 18 18 18 18 18 18 18 18
19 19 18 18 19 21 23 25 26 25 25 25 24 22 20 21 22 23 22 22 21 20 20 20 20 20 19 19 19 19 19 19 19 19 19 19 19 19 19 19 19 18 18 18 18 18 18 18 18
19 18 18 19 21 24 24 25 25 24 24 24 23 21 20 20 21 22 22 21 21 21 20 20 20 19 19 19 19 19 19 19 19 19 19 19 19 19 18 18 18 18 18 18 18 18 18 18 18
20 17 19 21 22 23 25 25 24 23 23 23 23 20 19 19 20 21 21 21 20 20 20 20 20 20 19 19 19 19 19 19 19 19 19 19 19 19 18 18 18 18 18 18 18 18 18 18 18
21 17 20 20 22 24 24 25 24 23 22 22 22 20 19 19 20 21 21 20 20 20 20 20 20 20 20 20 19 19 19 19 19 19 19 19 19 19 19 18 18 18 18 18 18 18 18 18 18
21 18 19 21 23 24 24 23 23 22 21 20 20 20 20 20 20 21 20 20 20 20 20 20 20 20 19 19 19 19 19 19 19 19 19 19 19 18 18 18 18 18 18 18 18 18 18 18 18
21 18 20 22 23 23 23 22 22 21 20 19 19 19 20 20 20 20 20 20 20 19 19 19 19 19 19 19 19 18 18 18 18 18 18 18 18 18 18 18 18 18 18 17 17 18 18 18 18
20 19 21 22 24 23 22 20 20 20 19 19 19 19 19 19 19 19 19 20 19 19 19 19 19 19 19 18 18 18 18 18 18 18 18 18 18 18 17 17 17 17 17 17 17 17 17 17 17
20 21 22 22 23 22 21 19 18 18 18 18 19 19 18 19 18 19 19 19 19 18 19 19 19 19 19 18 18 18 18 18 18 18 17 17 17 17 17 17 17 17 17 17 17 17 17 17 17
22 22 22 21 21 20 19 18 18 17 17 18 18 18 18 18 18 18 18 18 18 18 18 18 18 18 18 18 18 17 17 17 17 17 17 17 17 17 16 16 16 16 16 16 16 16 17 17 17
23 22 21 21 20 19 18 18 18 17 17 18 18 18 18 18 18 18 18 18 18 18 18 18 18 18 18 17 17 17 17 17 17 16 16 16 16 16 16 16 16 16 16 16 16 16 16 16 16
23 21 21 20 20 19 19 18 17 17 17 17 17 17 18 18 18 17 17 18 18 18 18 18 18 18 18 17 17 17 17 17 16 16 16 16 16 16 15 15 15 15 15 16 16 16 16 16 16
22 21 20 21 20 20 19 18 17 17 17 17 17 17 17 17 17 17 17 18 18 18 18 18 18 18 18 17 17 17 17 16 16 16 15 15 15 15 15 15 15 15 15 15 15 15 15 15 15
20 20 21 20 20 19 18 17 17 17 17 16 16 16 17 17 17 17 17 18 18 18 18 18 18 17 17 17 17 16 16 16 15 15 15 15 14 14 14 14 14 14 14 14 14 15 15 15 15
21 21 21 20 19 18 17 16 16 16 17 16 16 16 17 17 18 18 18 18 18 18 18 18 17 17 17 16 16 16 15 15 15 14 14 14 14 14 14 14 14 14 14 14 14 14 14 14 14
21 21 20 20 19 18 17 17 16 16 16 16 16 16 17 17 18 17 18 17 17 17 17 17 17 17 16 16 15 15 15 14 14 13 13 13 13 13 13 13 13 13 13 13 13 13 14 14 14
21 21 20 19 19 18 17 17 17 16 16 16 16 17 17 17 17 18 18 18 18 17 17 17 17 16 16 15 15 14 14 13 13 13 12 12 12 12 12 13 13 13 13 13 13 13 13 13 13
21 21 20 19 18 17 18 18 17 17 16 17 17 17 18 18 18 18 18 18 18 17 17 17 16 16 15 15 14 14 13 13 12 12 12 12 12 12 12 12 12 12 12 13 13 13 13 13 13
21 21 20 19 18 16 17 17 17 16 16 17 17 17 18 18 19 19 18 18 18 18 17 17 16 16 15 15 14 13 13 12 12 11 11 11 11 11 11 11 11 12 12 12 12 12 12 12 12
20 20 19 18 16 16 16 16 16 16 17 17 17 18 18 19 19 19 19 19 18 18 17 17 16 16 15 14 13 13 12 12 11 11 11 11 11 11 11 11 11 11 11 11 12 12 12 12 12
20 18 17 15 15 17 16 16 16 16 17 17 17 19 19 19 19 19 19 19 18 18 17 17 16 16 15 14 13 12 12 11 11 11 11 11 11 11 10 10 10 10 11 11 11 11 11 11 12
19 18 17 17 16 16 16 15 15 17 17 17 18 19 20 20 19 19 19 19 18 18 18 17 16 15 14 13 13 12 12 11 11 11 10 10 10 10 10 10 10 10 10 10 10 11 11 11 11
19 19 18 19 17 16 16 16 16 18 18 19 19 19 20 19 19 19 19 19 18 18 17 16 16 15 14 13 12 12 11 11 11 11 10 10 10 10 10 9 9 9 9 9 9 10 10 10 10
20 18 17 15 16 16 16 16 17 18 18 18 19 19 19 20 20 20 19 19 18 18 17 16 15 14 13 13 12 12 11 11 11 11 10 10 10 10 9 9 9 9 9 9 9 9 9 9 10
20 16 15 16 17 18 18 17 17 19 19 18 18 19 20 20 20 20 19 19 18 17 16 15 15 14 13 13 12 12 11 11 11 11 10 10 10 10 9 9 9 9 9 9 8 8 8 9 9
21 18 15 14 15 16 17 17 17 17 18 17 18 20 20 20 20 20 19 18 18 17 16 15 14 14 13 12 12 12 11 11 11 10 10 10 10 9 9 9 9 9 9 9 8 8 8 8 8
22 21 16 18 17 15 16 17 18 17 17 18 19 20 20 20 20 19 19 18 17 17 16 15 14 13 13 12 12 12 11 11 11 10 10 10 9 9 9 9 9 9 9 8 8 8 8 8 8
Wind_Speed
17 12 3 3 3 2 5 6 4 4 2 2 5 8 8 5 3 4 3 10 14 13 13 16 17 17 17 17 18 18 18 17 17 16 16 15 15 14 14 13 13 12 11 10 10 9 8 8 8
11 5 3 3 3 3 6 5 4 2 2 3 6 6 7 6 4 7 6 10 15 13 13 14 16 16 16 16 16 17 16 16 15 15 15 14 13 13 13 12 12 11 11 10 9 9 8 8 8
8 2 4 3 1 3 6 5 4 2 2 2 4 5 5 4 5 5 7 15 14 11 13 15 16 16 15 15 15 15 14 14 13 13 12 12 12 11 11 11 10 10 10 10 9 9 8 8 8
4 3 4 3 4 6 6 9 6 2 4 5 4 6 5 5 3 7 14 16 15 10 12 14 15 14 14 13 13 13 12 12 11 11 11 10 10 10 10 9 9 9 9 9 9 9 9 8 8
3 4 4 2 6 6 5 8 3 2 3 5 4 6 5 6 10 15 15 16 15 10 10 13 14 13 12 12 11 11 11 11 10 10 10 10 10 10 9 9 9 8 8 8 8 8 9 9 8
4 4 3 3 6 6 5 7 4 6 4 5 5 5 4 5 10 13 13 13 12 10 9 11 13 12 11 10 10 10 10 9 9 9 9 10 10 10 9 10 10 9 8 8 8 8 9 9 8
4 4 2 4 5 6 7 7 7 5 6 6 3 5 4 6 9 11 12 11 10 9 7 8 9 9 9 9 9 8 8 8 8 9 9 9 9 9 9 9 9 10 10 10 10 10 10 9 9
5 4 1 3 3 4 6 5 5 7 5 5 4 6 5 7 11 12 12 10 9 7 6 5 6 5 5 6 7 7 8 8 8 8 9 9 10 10 10 10 10 10 11 11 11 12 11 11 11
4 4 2 4 3 3 4 5 4 5 7 6 6 4 8 14 14 13 12 10 8 7 5 4 4 3 2 3 4 6 7 7 7 8 9 10 9 8 8 10 10 11 12 12 13 13 13 13 13
4 3 7 6 4 3 2 4 4 5 9 7 8 11 14 14 12 12 11 10 8 7 5 3 2 1 1 2 1 2 3 3 4 6 8 8 7 8 9 9 11 12 12 12 12 14 14 14 12
6 7 6 6 5 3 1 4 6 6 8 5 6 9 12 11 10 9 8 7 6 5 5 4 2 1 1 1 2 2 3 3 3 5 8 8 7 6 7 6 7 8 9 8 9 11 11 12 12
5 5 4 4 1 2 3 5 7 10 7 6 8 9 10 10 9 8 8 7 7 7 6 5 4 4 3 3 4 4 4 4 4 4 5 5 3 3 3 4 5 5 5 6 7 7 9 11 13
4 2 3 5 10 10 12 10 8 8 9 10 11 11 10 10 9 8 8 9 8 7 6 6 6 5 4 5 4 5 5 5 6 6 6 4 2 2 2 2 3 4 4 3 4 5 6 7 8
1 4 4 5 8 6 10 7 6 5 7 10 11 10 10 9 8 8 8 8 7 6 5 5 5 4 5 4 3 3 4 4 5 5 6 5 3 2 1 1 2 2 3 3 3 4 4 5 5
2 3 5 4 4 4 7 7 3 3 6 9 9 9 9 8 8 7 7 6 6 5 4 4 4 4 5 4 3 4 4 5 5 6 7 6 4 2 1 1 2 2 3 3 3 3 3 4 5
3 4 2 3 2 3 6 5 3 2 5 7 7 8 8 7 6 6 6 6 6 5 5 4 4 4 4 3 3 3 4 5 5 7 8 8 6 5 2 1 2 3 3 2 2 3 3 4 5
4 1 2 2 2 1 4 5 4 2 4 5 6 6 7 7 7 6 7 7 6 6 5 4 4 4 3 3 3 3 4 5 6 7 8 8 8 6 3 2 3 4 2 2 3 3 3 4 6
3 3 2 2 1 3 3 3 3 3 3 5 5 5 6 7 8 8 7 6 6 5 4 4 3 2 2 2 3 3 4 4 5 6 7 9 8 8 5 3 3 3 2 3 3 4 4 4 6
5 3 3 1 2 3 3 3 3 2 3 4 5 5 6 6 6 7 7 7 6 5 5 4 3 2 1 1 1 2 2 3 3 4 7 8 9 9 5 3 4 3 2 4 4 3 4 3 3
3 3 2 1 4 3 2 1 1 2 2 3 5 6 7 6 5 7 7 7 7 7 6 5 5 3 2 1 1 1 1 2 3 3 5 7 8 8 6 4 4 3 2 3 3 2 2 2 2
3 4 4 4 3 5 3 3 1 1 2 3 4 5 6 8 8 8 8 8 7 7 7 6 6 5 3 2 1 1 2 3 3 3 4 5 8 7 6 5 4 4 2 2 3 2 2 3 3
3 1 5 6 5 4 5 3 4 3 4 3 4 5 6 7 7 7 7 7 7 7 6 7 6 5 4 2 2 2 1 2 3 3 4 5 6 6 6 5 4 3 2 2 3 2 2 2 3
4 7 8 7 6 4 6 3 7 3 4 5 6 7 7 8 8 8 8 7 6 6 6 6 5 4 3 3 3 3 3 3 3 3 5 5 4 5 5 4 4 3 3 3 3 3 2 2 2
8 8 8 7 5 3 3 1 6 4 6 6 5 6 7 7 7 7 5 5 5 5 5 5 5 4 4 4 4 4 5 5 5 5 4 4 4 4 5 4 3 3 3 3 3 3 3 2 3
6 6 5 5 4 3 1 2 8 8 7 7 8 8 7 6 5 5 5 6 6 6 5 5 5 5 5 5 5 5 6 6 6 6 5 5 4 4 5 4 4 4 4 4 4 3 4 3 3
4 7 6 4 4 3 2 4 8 7 7 7 7 7 5 5 5 6 7 7 7 7 6 5 6 5 5 6 6 6 6 5 5 6 5 5 5 6 6 5 5 5 5 5 4 3 4 3 4
6 3 6 7 3 1 4 6 8 5 5 5 5 5 6 5 6 7 7 7 6 6 6 6 6 6 7 7 6 6 6 6 6 6 5 5 6 6 6 6 6 6 5 5 4 4 5 4 4
5 8 6 6 5 1 4 5 5 7 8 6 5 6 6 6 6 6 6 6 5 5 4 5 6 7 7 6 6 5 6 6 6 5 6 7 6 6 7 7 7 7 6 6 5 5 5 5 5
3 5 6 5 5 6 3 7 8 10 9 9 9 8 8 9 8 7 5 4 3 3 4 5 6 6 7 7 6 6 7 6 6 6 7 7 7 7 7 8 8 8 8 7 5 6 6 6 7
2 5 7 5 3 5 4 8 6 8 8 9 9 8 8 8 6 5 4 3 4 5 5 6 7 7 8 7 6 7 7 6 6 7 7 7 7 7 8 8 8 9 9 8 7 8 7 7 8
Wind_Direction
138 133 116 82 47 20 278 259 247 286 339 26 68 83 90 77 96 134 111 128 130 137 146 147 144 139 136 132 130 129 128 129 130 132 134 138 143 148 152 157 160 162 162 161 158 153 147 142 138
136 134 83 70 65 342 287 256 266 284 151 116 75 79 76 70 77 110 124 134 136 136 139 146 145 142 140 137 134 133 133 134 136 139 142 146 150 155 159 163 166 168 168 168 166 164 158 153 149
146 131 94 82 117 236 278 286 299 351 31 44 66 59 73 96 126 134 139 137 131 130 135 148 148 146 145 142 140 138 139 140 143 146 150 154 158 163 166 170 173 175 176 176 177 176 172 167 162
138 71 68 71 259 244 253 276 284 311 22 38 80 63 56 35 125 130 132 134 130 124 132 148 148 148 148 148 146 145 146 149 152 156 161 165 170 174 178 181 186 188 188 187 187 188 185 181 176
80 86 61 333 271 263 269 291 281 92 61 37 64 78 43 23 91 118 129 134 132 124 127 144 146 147 149 152 154 155 157 161 166 172 177 181 186 191 194 197 201 202 201 201 201 201 197 194 191
73 74 78 299 290 291 313 345 39 57 65 56 63 78 56 80 104 119 126 128 128 126 120 137 144 147 151 156 161 165 169 175 180 187 192 197 202 207 210 212 214 215 216 216 217 217 213 206 206
118 116 185 262 292 318 340 357 35 33 52 39 64 88 91 98 105 114 116 119 121 117 110 117 136 148 155 162 169 177 183 190 196 203 208 213 218 222 224 225 225 223 225 227 228 226 224 218 218
141 114 290 277 282 310 332 10 26 32 41 27 49 113 137 127 115 111 109 109 112 105 97 98 111 127 148 169 184 192 200 206 212 220 226 229 233 235 237 238 240 239 237 236 235 231 229 226 224
113 78 256 246 239 279 343 22 32 48 54 40 37 75 120 124 119 116 116 117 123 121 101 91 91 103 134 178 209 216 223 227 232 239 241 241 244 252 255 254 251 251 251 249 244 240 237 234 230
116 164 232 230 219 232 346 33 38 61 52 45 56 75 107 119 123 125 131 136 139 138 125 98 96 111 164 204 232 259 262 256 249 259 262 259 249 250 257 263 263 262 262 261 257 252 248 242 234
169 203 241 258 246 224 92 55 31 89 58 48 85 107 114 111 112 116 121 125 124 120 111 89 79 95 132 337 12 356 331 330 305 287 274 265 260 258 262 267 274 277 280 278 274 268 255 243 232
190 250 261 294 307 92 88 97 64 58 75 73 89 104 111 106 102 106 108 99 97 92 83 72 60 55 64 60 39 28 14 5 349 326 301 281 269 260 253 258 267 270 277 280 278 271 262 253 242
214 296 23 49 72 82 87 82 93 80 88 89 92 94 102 101 96 91 94 98 99 91 80 69 67 65 65 62 48 39 19 4 359 357 350 322 273 263 260 258 261 267 271 276 283 282 276 267 256
155 94 68 55 76 74 91 76 84 103 108 101 101 99 101 103 105 103 102 104 103 102 98 86 80 77 79 72 67 53 36 18 14 4 347 334 296 267 256 259 276 281 277 272 271 275 277 273 267
128 97 46 38 77 127 97 61 70 144 126 114 113 112 109 110 113 119 127 130 134 133 127 122 119 103 98 96 83 72 53 44 30 8 357 352 344 313 287 278 284 285 290 285 284 286 282 279 271
70 68 45 335 70 151 119 141 177 165 138 132 129 128 126 123 128 140 147 154 161 160 163 172 143 133 121 108 92 74 54 46 32 20 14 11 8 358 338 313 302 309 307 298 293 285 286 279 277
36 91 215 271 7 103 123 157 179 171 153 145 143 143 143 144 149 166 170 176 181 183 181 180 162 150 129 99 72 58 46 37 23 21 19 13 12 9 357 322 310 321 314 297 293 287 269 280 282
230 221 220 230 360 75 102 143 167 187 182 168 162 157 159 167 176 179 185 192 193 198 198 189 170 152 112 71 43 25 21 15 13 11 8 8 8 9 4 333 317 317 301 294 288 285 277 269 277
193 194 211 231 53 79 115 147 189 191 189 187 188 181 182 193 190 188 194 196 196 203 206 201 186 185 125 65 47 14 339 333 340 348 358 1 4 5 7 351 328 319 289 282 285 281 288 282 275
181 186 192 84 48 82 108 134 182 184 193 207 211 205 195 202 203 205 205 203 205 208 208 206 204 201 195 170 165 210 278 294 293 315 339 353 357 358 3 355 335 321 301 301 296 267 280 282 273
213 192 181 153 111 48 29 19 9 267 222 217 218 221 213 209 213 217 215 213 210 213 209 206 204 205 204 174 108 32 359 340 338 334 331 335 341 345 350 352 347 344 330 305 298 274 253 278 283
259 235 131 112 90 20 32 344 309 314 308 251 231 227 228 225 222 222 223 223 219 218 204 199 196 200 203 179 185 219 251 278 272 284 294 309 324 332 339 346 352 356 352 328 310 310 252 259 285
91 71 84 87 91 49 25 29 300 335 300 268 243 231 232 233 227 226 224 223 216 200 190 187 184 200 208 207 214 227 246 249 273 284 292 304 313 321 330 334 346 347 340 331 328 326 296 251 259
122 78 59 51 62 28 349 35 293 266 241 261 256 243 239 238 233 228 217 197 191 176 168 167 178 211 225 231 233 229 247 260 274 284 291 300 306 307 314 319 327 323 320 317 312 306 301 278 265
81 85 38 9 14 274 281 259 256 258 239 233 248 252 245 240 231 218 195 183 181 173 170 172 186 223 238 242 246 240 243 246 250 264 271 282 291 292 296 304 301 301 301 303 304 301 298 287 278
147 132 154 198 221 273 309 253 256 258 261 249 245 249 243 228 210 203 196 188 186 183 180 184 200 228 242 245 250 248 244 237 245 253 255 263 266 274 280 283 281 283 289 298 304 298 293 288 284
138 144 144 123 113 40 288 285 299 264 262 250 241 235 230 212 201 200 196 193 193 194 197 200 209 232 246 247 250 253 247 239 249 258 257 260 263 273 276 279 281 280 279 279 284 281 287 292 283
123 137 102 110 131 255 296 280 251 256 246 238 229 226 221 206 205 206 206 207 207 211 219 221 223 233 246 251 250 252 250 246 250 260 267 268 271 272 282 284 283 281 277 272 266 268 274 278 279
123 98 102 107 143 152 238 268 227 224 225 221 226 221 207 206 210 215 221 224 226 237 239 240 241 247 258 258 257 260 261 257 259 262 267 271 276 279 280 282 285 285 281 274 263 262 265 264 271
194 158 149 147 196 170 183 265 263 239 236 220 224 219 210 213 217 224 229 235 242 248 251 250 252 253 257 260 262 262 264 264 265 267 271 274 277 279 279 281 284 283 281 274 267 270 270 261 264
Height
1522 1524 1527 1529 1531 1535 1532 1519 1508 1502 1499 1498 1497 1498 1501 1505 1509 1516 1513 1513 1517 1521 1525 1528 1532 1534 1536 1538 1539 1541 1543 1544 1546 1547 1548 1549 1550 1550 1551 1552 1552 1553 1554 1555 1556 1556 1557 1557 1558
1523 1525 1529 1530 1534 1539 1527 1510 1504 1500 1499 1499 1499 1501 1503 1507 1508 1510 1512 1515 1518 1522 1526 1529 1533 1535 1537 1539 1541 1543 1544 1545 1547 1548 1549 1550 1550 1551 1552 1552 1553 1554 1555 1556 1556 1557 1558 1558 1559
1524 1527 1529 1531 1535 1536 1523 1505 1500 1498 1499 1500 1501 1503 1506 1509 1510 1512 1514 1516 1519 1524 1527 1531 1534 1537 1539 1541 1543 1544 1545 1547 1548 1549 1550 1550 1551 1551 1552 1553 1553 1554 1555 1556 1557 1558 1558 1559 1560
1525 1528 1530 1534 1534 1525 1514 1504 1499 1499 1499 1501 1503 1507 1510 1513 1513 1514 1515 1518 1521 1525 1529 1533 1536 1538 1541 1542 1544 1545 1547 1548 1549 1549 1550 1550 1551 1552 1552 1553 1554 1554 1555 1556 1557 1558 1559 1560 1560
1525 1527 1532 1536 1530 1517 1508 1502 1498 1500 1501 1504 1505 1509 1513 1514 1515 1516 1518 1520 1523 1527 1531 1534 1537 1540 1542 1543 1545 1546 1547 1548 1549 1549 1550 1550 1551 1551 1552 1553 1553 1554 1555 1556 1557 1558 1559 1560 1561
1526 1527 1537 1538 1526 1513 1506 1502 1499 1501 1504 1506 1508 1512 1516 1517 1517 1519 1520 1523 1526 1529 1532 1535 1538 1540 1542 1544 1546 1547 1548 1548 1549 1549 1550 1550 1550 1551 1551 1552 1553 1554 1555 1555 1556 1557 1559 1560 1560
1526 1530 1534 1531 1525 1515 1508 1504 1504 1505 1507 1509 1511 1514 1518 1519 1520 1521 1523 1525 1528 1531 1534 1536 1538 1541 1543 1544 1546 1547 1547 1548 1549 1549 1549 1550 1550 1550 1551 1551 1552 1553 1554 1554 1555 1556 1558 1559 1560
1524 1529 1531 1530 1524 1517 1509 1507 1508 1509 1511 1512 1512 1515 1518 1521 1522 1523 1525 1528 1530 1533 1536 1538 1539 1541 1543 1544 1545 1546 1547 1547 1548 1548 1548 1549 1549 1549 1550 1550 1551 1551 1552 1553 1554 1555 1556 1557 1558
1524 1531 1535 1526 1520 1514 1509 1509 1511 1513 1513 1514 1514 1516 1518 1521 1523 1525 1527 1529 1532 1534 1537 1539 1540 1541 1543 1544 1545 1546 1546 1547 1547 1547 1547 1547 1548 1548 1548 1548 1549 1549 1550 1551 1552 1553 1554 1555 1556
1522 1532 1526 1516 1512 1511 1510 1511 1513 1515 1515 1518 1518 1519 1521 1523 1525 1527 1528 1530 1533 1535 1537 1539 1541 1542 1543 1543 1544 1545 1545 1546 1546 1546 1546 1546 1546 1546 1546 1546 1547 1547 1548 1548 1549 1550 1551 1552 1552
1519 1522 1515 1511 1510 1509 1510 1513 1514 1516 1520 1522 1522 1522 1524 1525 1527 1529 1531 1532 1534 1536 1537 1539 1540 1541 1542 1543 1543 1544 1544 1544 1544 1544 1544 1544 1544 1544 1544 1544 1544 1544 1545 1545 1546 1546 1547 1548 1549
1517 1514 1513 1510 1508 1509 1510 1514 1517 1519 1523 1524 1524 1524 1525 1527 1529 1531 1533 1534 1535 1536 1537 1538 1540 1541 1542 1542 1542 1542 1542 1541 1542 1542 1541 1541 1541 1541 1541 1541 1541 1541 1541 1541 1542 1542 1542 1543 1544
1515 1514 1513 1511 1509 1511 1512 1516 1519 1524 1524 1524 1525 1526 1527 1529 1531 1532 1534 1535 1535 1536 1537 1538 1540 1541 1541 1542 1541 1541 1540 1540 1539 1540 1539 1538 1538 1538 1538 1538 1538 1538 1537 1537 1537 1537 1537 1537 1538
1513 1514 1513 1513 1512 1514 1515 1519 1520 1525 1525 1525 1526 1526 1528 1530 1531 1532 1534 1535 1536 1537 1538 1539 1540 1541 1541 1542 1541 1541 1540 1539 1538 1538 1537 1536 1535 1535 1535 1535 1534 1534 1534 1533 1533 1532 1532 1532 1532
1513 1514 1515 1515 1514 1516 1516 1523 1524 1525 1525 1525 1526 1527 1528 1530 1531 1533 1534 1536 1537 1538 1539 1540 1540 1541 1541 1541 1541 1540 1539 1538 1537 1536 1534 1533 1532 1532 1531 1531 1531 1530 1530 1529 1529 1528 1527 1526 1526
1513 1518 1523 1517 1516 1516 1520 1529 1526 1525 1526 1526 1527 1528 1528 1530 1531 1533 1535 1536 1538 1539 1539 1540 1540 1541 1541 1541 1540 1539 1538 1536 1534 1533 1531 1530 1529 1528 1528 1527 1527 1527 1526 1525 1524 1523 1522 1522 1521
1520 1525 1524 1520 1516 1516 1520 1526 1525 1525 1526 1526 1527 1528 1529 1529 1531 1533 1535 1536 1538 1539 1539 1540 1540 1540 1540 1540 1539 1538 1536 1534 1532 1530 1528 1526 1525 1525 1524 1524 1523 1523 1522 1522 1521 1519 1518 1517 1516
1524 1523 1522 1521 1518 1518 1522 1525 1524 1525 1526 1526 1527 1528 1529 1529 1530 1532 1534 1536 1537 1538 1539 1540 1540 1540 1539 1539 1537 1536 1534 1532 1529 1526 1524 1523 1522 1521 1521 1521 1520 1520 1519 1518 1517 1516 1515 1513 1512
1514 1518 1521 1520 1518 1521 1524 1525 1525 1525 1526 1527 1528 1528 1528 1530 1531 1532 1534 1535 1537 1538 1538 1539 1539 1539 1538 1537 1536 1534 1531 1529 1526 1524 1522 1520 1519 1518 1518 1517 1517 1516 1516 1515 1514 1512 1511 1510 1508
1512 1518 1520 1521 1519 1522 1526 1526 1525 1525 1526 1527 1527 1527 1528 1529 1530 1531 1533 1534 1535 1536 1537 1538 1538 1537 1537 1535 1534 1532 1529 1526 1524 1521 1519 1517 1516 1515 1514 1513 1513 1512 1512 1511 1510 1509 1508 1507 1505
1513 1516 1518 1522 1522 1524 1525 1528 1527 1525 1525 1525 1526 1526 1527 1527 1528 1530 1531 1532 1534 1535 1536 1536 1536 1535 1535 1533 1531 1529 1527 1524 1522 1519 1517 1515 1513 1512 1511 1510 1509 1509 1508 1508 1507 1506 1505 1504 1503
1516 1510 1512 1519 1527 1537 1534 1542 1530 1526 1524 1523 1524 1524 1525 1526 1527 1529 1530 1531 1532 1533 1534 1534 1534 1533 1532 1531 1529 1527 1524 1522 1519 1517 1515 1513 1511 1510 1508 1507 1506 1505 1505 1504 1504 1503 1502 1501 1500
1513 1511 1515 1522 1531 1539 1540 1544 1537 1527 1526 1522 1521 1521 1522 1523 1525 1526 1527 1529 1530 1531 1531 1531 1531 1530 1529 1528 1526 1524 1521 1519 1517 1515 1513 1511 1509 1507 1505 1503 1502 1502 1501 1501 1500 1500 1499 1498 1497
1510 1516 1523 1531 1538 1548 1545 1548 1542 1530 1523 1520 1517 1518 1518 1520 1522 1523 1525 1526 1527 1528 1528 1528 1528 1528 1527 1525 1523 1521 1519 1516 1514 1512 1510 1508 1506 1504 1502 1500 1499 1498 1497 1497 1496 1496 1495 1495 1494
1512 1527 1544 1547 1555 1553 1545 1547 1541 1521 1516 1516 1515 1515 1516 1518 1519 1520 1522 1523 1524 1525 1525 1526 1525 1525 1523 1522 1520 1518 1516 1514 1511 1509 1507 1504 1502 1500 1498 1497 1495 1494 1493 1492 1491 1491 1491 1490 1490
1514 1523 1543 1551 1555 1552 1545 1546 1530 1514 1512 1512 1512 1513 1514 1515 1517 1518 1519 1520 1522 1523 1523 1523 1522 1521 1520 1518 1517 1515 1513 1511 1509 1506 1504 1501 1499 1497 1495 1494 1492 1490 1489 1487 1486 1486 1485 1485 1484
1515 1522 1526 1543 1548 1552 1546 1537 1522 1510 1510 1510 1510 1511 1511 1513 1514 1516 1517 1518 1519 1520 1520 1520 1519 1518 1517 1515 1513 1511 1510 1508 1505 1503 1501 1499 1496 1494 1492 1490 1489 1487 1485 1484 1482 1481 1480 1479 1479
1507 1519 1533 1543 1553 1554 1544 1538 1532 1514 1510 1508 1508 1509 1509 1511 1513 1514 1515 1517 1517 1518 1517 1517 1516 1515 1513 1512 1510 1508 1506 1504 1502 1500 1498 1495 1493 1491 1488 1487 1485 1483 1481 1480 1478 1477 1476 1475 1474
1512 1520 1532 1542 1542 1553 1555 1542 1513 1508 1505 1505 1505 1506 1508 1509 1511 1513 1514 1515 1515 1515 1515 1514 1513 1511 1510 1508 1507 1505 1503 1501 1499 1496 1494 1491 1489 1487 1484 1482 1480 1478 1477 1475 1474 1472 1471 1470 1469
1503 1510 1524 1533 1540 1546 1548 1537 1502 1501 1500 1502 1503 1504 1506 1508 1510 1511 1512 1513 1513 1512 1512 1511 1509 1508 1506 1505 1503 1501 1499 1497 1494 1492 1489 1487 1484 1482 1479 1477 1475 1473 1471 1470 1468 1467 1465 1464 1463